Bilbao, Spain

2:41 PM CET on December 16, 2017 (GMT +0100)
Bilbao

Weather History for LEBB - December, 2013

Change the Weather History Date:

Sunday, December 15, 2013

  Actual Average Record
Temperature  
Mean Temperature 54 °F -  
Max Temperature 66 °F 54 °F 70 °F (2015)
Min Temperature 41 °F 40 °F 28 °F (2001)
Degree Days  
Heating Degree Days 12    
Growing Degree Days 4 (Base 50)    
Moisture  
Dew Point 36 °F    
Average Humidity 52    
Maximum Humidity 81    
Minimum Humidity 34    
Precipitation  
Precipitation 0.00 in - - ()
Sea Level Pressure  
Sea Level Pressure 30.39 in    
Wind  
Wind Speed 4 mph ()    
Max Wind Speed 16 mph    
Max Gust Speed 28 mph    
Averages and records for this station are not official NWS values.
T = Trace of Precipitation, MM = Missing Value Source: Averaged Metar Reports

Daily Weather History Graph

Daily Weather History Graph

Search for Another Location

Airport or City:

Trip Planner

Search our weather history database for the weather conditions in past years. The results will help you decide how hot, cold, wet, or windy it might be!

Date:

Astronomy

Dec. 15, 2013 Rise Set
Actual Time 8:37 AM CET 5:36 PM CET
Civil Twilight 8:04 AM CET 6:09 PM CET
Nautical Twilight 7:28 AM CET 6:45 PM CET
Astronomical Twilight 6:53 AM CET 7:20 PM CET
Moon 4:32 PM CET (12/15) 6:38 AM CET (12/15)
Length of Visible Light 10h 04m
Length of Day
8h 59m
Waxing Gibbous, 97% of the Moon is Illuminated
Dec 15
Waxing Gibbous
Dec 17
Full
Dec 25
Last Quarter
Jan 1
New
Jan 8
First Quarter

Hourly Weather History & Observations

Time (CET) Temp. Windchill Dew Point Humidity Pressure Visibility Wind Dir Wind Speed Gust Speed Precip Events Conditions
5:00 AM 42.8 °F - 35.6 °F 76% 30.42 in - Calm Calm - N/A   Clear
5:30 AM 42.8 °F - 35.6 °F 76% 30.42 in - Variable 1.2 mph - N/A   Clear
6:00 AM 42.8 °F - 35.6 °F 76% 30.42 in - Variable 1.2 mph - N/A   Clear
6:30 AM 41.0 °F - 35.6 °F 81% 30.42 in - Calm Calm - N/A   Clear
7:00 AM 41.0 °F - 33.8 °F 76% 30.42 in - Variable 2.3 mph - N/A   Clear
7:30 AM 41.0 °F - 33.8 °F 76% 30.42 in - Variable 2.3 mph - N/A   Clear
8:00 AM 42.8 °F 40.1 °F 33.8 °F 70% 30.45 in - SE 4.6 mph - N/A   Clear
8:30 AM 42.8 °F - 33.8 °F 70% 30.45 in - Calm Calm - N/A   Clear
9:00 AM 42.8 °F - 33.8 °F 70% 30.45 in - Variable 2.3 mph - N/A   Clear
9:30 AM 44.6 °F - 33.8 °F 66% 30.45 in - Calm Calm - N/A   Clear
10:00 AM 48.2 °F - 37.4 °F 66% 30.45 in - ESE 4.6 mph - N/A   Clear
10:30 AM 51.8 °F - 37.4 °F 58% 30.45 in - SE 3.5 mph - N/A   Clear
11:00 AM 55.4 °F - 37.4 °F 51% 30.45 in - SE 9.2 mph - N/A   Clear
11:30 AM 57.2 °F - 37.4 °F 48% 30.45 in - ESE 8.1 mph - N/A   Clear
12:00 PM 59.0 °F - 37.4 °F 45% 30.42 in - SSE 5.8 mph - N/A   Clear
12:30 PM 62.6 °F - 39.2 °F 42% 30.42 in - SSE 8.1 mph - N/A   Clear
1:00 PM 64.4 °F - 41.0 °F 42% 30.39 in - SSE 6.9 mph - N/A   Clear
1:30 PM 64.4 °F - 39.2 °F 40% 30.39 in - South 9.2 mph 21.9 mph N/A   Clear
2:00 PM 64.4 °F - 39.2 °F 40% 30.36 in - South 9.2 mph - N/A   Clear
2:30 PM 66.2 °F - 39.2 °F 37% 30.36 in - SE 6.9 mph 19.6 mph N/A   Clear
3:00 PM 66.2 °F - 39.2 °F 37% 30.36 in - SE 6.9 mph - N/A   Clear
3:30 PM 66.2 °F - 37.4 °F 35% 30.36 in - SE 6.9 mph - N/A   Clear
4:00 PM 64.4 °F - 35.6 °F 34% 30.33 in - South 9.2 mph - N/A   Clear
4:30 PM 64.4 °F - 35.6 °F 34% 30.33 in - SSE 6.9 mph 18.4 mph N/A   Clear
5:00 PM 62.6 °F - 37.4 °F 39% 30.33 in - South 16.1 mph 27.6 mph N/A   Clear
5:30 PM 62.6 °F - 35.6 °F 37% 30.33 in - South 15.0 mph - N/A   Clear
6:00 PM 60.8 °F - 35.6 °F 39% 30.36 in - SSE 10.4 mph - N/A   Clear
6:30 PM 60.8 °F - 35.6 °F 39% 30.36 in - SE 4.6 mph 16.1 mph N/A   Clear
7:00 PM 59.0 °F - 33.8 °F 39% 30.36 in - South 9.2 mph - N/A   Clear
7:30 PM 59.0 °F - 33.8 °F 39% 30.36 in - SSE 9.2 mph 20.7 mph N/A   Clear
8:00 PM 59.0 °F - 33.8 °F 39% 30.36 in - South 10.4 mph 24.2 mph N/A   Clear
8:30 PM 59.0 °F - 35.6 °F 42% 30.39 in - South 9.2 mph 21.9 mph N/A   Clear
9:00 PM 55.4 °F - 37.4 °F 51% 30.39 in - Variable 3.5 mph - N/A   Clear
9:30 PM 55.4 °F - 37.4 °F 51% 30.39 in - ENE 10.4 mph - N/A   Clear
10:00 PM 57.2 °F - 37.4 °F 48% 30.39 in - East 9.2 mph - N/A   Clear
10:30 PM 55.4 °F - 37.4 °F 51% 30.36 in - ENE 8.1 mph - N/A   Clear
11:00 PM 55.4 °F - 37.4 °F 51% 30.36 in - East 4.6 mph - N/A   Clear
11:30 PM 55.4 °F - 37.4 °F 51% 30.36 in - ESE 5.8 mph 18.4 mph N/A   Clear